Hourly Weather Korovino

Today, 10 July, Friday

Time Temperature Precipitation Wind Pressure Humidity
00:00 +14°C° 0 mm 3 mps 748 mmHg 84%
01:00 +14°C° 0 mm 3 mps 748 mmHg 85%
02:00 +13°C° 0 mm 3 mps 748 mmHg 86%
03:00 +14°C° 0 mm 2 mps 749 mmHg 87%
04:00 +13°C° 0 mm 3 mps 749 mmHg 85%
05:00 +14°C° 0 mm 3 mps 749 mmHg 83%
06:00 +14°C° 0 mm 3 mps 749 mmHg 82%
07:00 +17°C° 0 mm 3 mps 750 mmHg 75%
08:00 +19°C° 0 mm 3 mps 750 mmHg 69%
09:00 +20°C° 0 mm 3 mps 750 mmHg 62%
10:00 +21°C° 0 mm 3 mps 750 mmHg 59%
11:00 +22°C° 0 mm 3 mps 750 mmHg 56%
12:00 +24°C° 0 mm 3 mps 750 mmHg 52%
13:00 +25°C° 0 mm 3 mps 751 mmHg 53%
14:00 +25°C° 0 mm 3 mps 751 mmHg 53%
15:00 +25°C° 0 mm 3 mps 751 mmHg 53%
16:00 +25°C° 0 mm 3 mps 751 mmHg 57%
17:00 +24°C° 0 mm 3 mps 751 mmHg 60%
18:00 +24°C° 0 mm 3 mps 751 mmHg 64%
19:00 +21°C° 0 mm 3 mps 751 mmHg 69%
20:00 +19°C° 0 mm 2 mps 752 mmHg 75%
21:00 +18°C° 0 mm 2 mps 752 mmHg 80%
22:00 +17°C° 0 mm 2 mps 752 mmHg 81%
23:00 +16°C° 0 mm 2 mps 752 mmHg 82%

Tomorrow, 11 July, Saturday

Time Temperature Precipitation Wind Pressure Humidity
00:00 +15°C° 0 mm 2 mps 752 mmHg 82%
01:00 +15°C° 0 mm 2 mps 752 mmHg 83%
02:00 +15°C° 0 mm 2 mps 753 mmHg 84%
03:00 +14°C° 0 mm 2 mps 753 mmHg 85%
04:00 +15°C° 0 mm 2 mps 753 mmHg 83%
05:00 +15°C° 0 mm 1 mps 753 mmHg 82%
06:00 +16°C° 0 mm 1 mps 753 mmHg 80%
07:00 +19°C° 0 mm 1 mps 753 mmHg 74%
08:00 +20°C° 0 mm 2 mps 753 mmHg 68%
09:00 +21°C° 0 mm 2 mps 753 mmHg 61%
10:00 +24°C° 0 mm 2 mps 753 mmHg 56%
11:00 +25°C° 0 mm 1 mps 753 mmHg 51%
12:00 +26°C° 0 mm 1 mps 753 mmHg 46%
13:00 +26°C° 0 mm 1 mps 753 mmHg 45%
14:00 +26°C° 0 mm 1 mps 753 mmHg 44%
15:00 +27°C° 0 mm 1 mps 752 mmHg 43%
16:00 +26°C° 0 mm 1 mps 752 mmHg 47%
17:00 +26°C° 0 mm 1 mps 752 mmHg 50%
18:00 +26°C° 0 mm 1 mps 751 mmHg 54%
19:00 +24°C° 0 mm 1 mps 751 mmHg 59%
20:00 +22°C° 0 mm 1 mps 751 mmHg 64%
21:00 +20°C° 0 mm 1 mps 751 mmHg 68%
22:00 +19°C° 0 mm 1 mps 751 mmHg 71%
23:00 +18°C° 0 mm 1 mps 751 mmHg 74%

Day after tomorrow, 12 July, Sunday

Time Temperature Precipitation Wind Pressure Humidity
00:00 +18°C° 0 mm 1 mps 751 mmHg 77%
01:00 +16°C° 0 mm 1 mps 751 mmHg 77%
02:00 +16°C° 0 mm 1 mps 751 mmHg 77%
03:00 +16°C° 0 mm 1 mps 751 mmHg 78%
04:00 +16°C° 0 mm 1 mps 751 mmHg 78%
05:00 +18°C° 0 mm 1 mps 751 mmHg 77%
06:00 +19°C° 0 mm 1 mps 750 mmHg 77%
07:00 +20°C° 0 mm 1 mps 750 mmHg 72%
08:00 +21°C° 0 mm 2 mps 750 mmHg 68%
09:00 +24°C° 0 mm 2 mps 750 mmHg 63%
10:00 +25°C° 0 mm 2 mps 750 mmHg 58%
11:00 +26°C° 0 mm 2 mps 750 mmHg 53%
12:00 +27°C° 0 mm 2 mps 749 mmHg 49%
13:00 +28°C° 0 mm 2 mps 749 mmHg 47%
14:00 +28°C° 0 mm 2 mps 749 mmHg 46%
15:00 +29°C° 0 mm 2 mps 749 mmHg 44%
16:00 +28°C° 0 mm 2 mps 748 mmHg 49%
17:00 +28°C° 0 mm 2 mps 748 mmHg 54%
18:00 +27°C° 0 mm 2 mps 747 mmHg 59%
19:00 +25°C° 0 mm 2 mps 747 mmHg 64%
20:00 +23°C° 0 mm 2 mps 747 mmHg 69%
21:00 +20°C° 0 mm 2 mps 747 mmHg 74%
22:00 +20°C° 0 mm 3 mps 746 mmHg 76%
23:00 +19°C° 0 mm 3 mps 746 mmHg 77%

13 July, Monday

Time Temperature Precipitation Wind Pressure Humidity
00:00 +19°C° 0 mm 3 mps 746 mmHg 79%
01:00 +18°C° 0 mm 2 mps 745 mmHg 82%
02:00 +18°C° 0 mm 2 mps 745 mmHg 84%
03:00 +18°C° 0 mm 2 mps 745 mmHg 87%
04:00 +19°C° 0.1 mm 2 mps 744 mmHg 89%
05:00 +19°C° 0.1 mm 3 mps 744 mmHg 91%
06:00 +20°C° 0.1 mm 3 mps 744 mmHg 92%
07:00 +22°C° 0 mm 3 mps 744 mmHg 87%
08:00 +25°C° 0 mm 2 mps 744 mmHg 81%
09:00 +27°C° 0 mm 2 mps 743 mmHg 76%
10:00 +28°C° 0 mm 3 mps 743 mmHg 71%
11:00 +29°C° 0 mm 3 mps 743 mmHg 67%
12:00 +30°C° 0 mm 3 mps 743 mmHg 62%
13:00 +29°C° 0 mm 4 mps 742 mmHg 66%
14:00 +28°C° 0 mm 4 mps 742 mmHg 69%
15:00 +27°C° 0 mm 4 mps 741 mmHg 73%
16:00 +26°C° 1.3 mm 4 mps 741 mmHg 76%
17:00 +26°C° 1.3 mm 4 mps 741 mmHg 80%
18:00 +25°C° 1.3 mm 3 mps 740 mmHg 84%
19:00 +23°C° 0.3 mm 4 mps 740 mmHg 84%
20:00 +23°C° 0.3 mm 4 mps 740 mmHg 83%
21:00 +22°C° 0.3 mm 4 mps 740 mmHg 83%
22:00 +21°C° 0 mm 4 mps 740 mmHg 84%
23:00 +21°C° 0 mm 4 mps 739 mmHg 84%

14 July, Tuesday

Time Temperature Precipitation Wind Pressure Humidity
00:00 +20°C° 0 mm 4 mps 739 mmHg 85%
01:00 +20°C° 0 mm 3 mps 739 mmHg 87%
02:00 +20°C° 0 mm 3 mps 739 mmHg 88%
03:00 +19°C° 0 mm 2 mps 738 mmHg 90%
04:00 +20°C° 0.1 mm 2 mps 738 mmHg 89%
05:00 +20°C° 0.1 mm 2 mps 738 mmHg 88%
06:00 +21°C° 0.1 mm 2 mps 738 mmHg 87%
07:00 +23°C° 0 mm 2 mps 738 mmHg 81%
08:00 +25°C° 0 mm 2 mps 738 mmHg 75%
09:00 +26°C° 0 mm 2 mps 738 mmHg 69%
10:00 +27°C° 0.5 mm 3 mps 739 mmHg 67%
11:00 +28°C° 0.5 mm 4 mps 739 mmHg 65%
12:00 +28°C° 0.5 mm 5 mps 739 mmHg 63%
13:00 +27°C° 0.4 mm 5 mps 739 mmHg 68%
14:00 +26°C° 0.4 mm 5 mps 739 mmHg 73%
15:00 +25°C° 0.4 mm 5 mps 739 mmHg 77%
16:00 +25°C° 1.9 mm 5 mps 739 mmHg 80%
17:00 +23°C° 1.9 mm 5 mps 739 mmHg 83%
18:00 +23°C° 1.9 mm 5 mps 738 mmHg 85%
19:00 +22°C° 0.2 mm 5 mps 739 mmHg 87%
20:00 +20°C° 0.2 mm 5 mps 739 mmHg 89%
21:00 +19°C° 0.2 mm 5 mps 740 mmHg 91%
22:00 +18°C° 0 mm 4 mps 740 mmHg 92%
23:00 +17°C° 0 mm 4 mps 740 mmHg 92%

15 July, Wednesday

Time Temperature Precipitation Wind Pressure Humidity
00:00 +15°C° 0 mm 4 mps 740 mmHg 92%
01:00 +14°C° 0 mm 4 mps 741 mmHg 92%
02:00 +14°C° 0 mm 4 mps 741 mmHg 92%
03:00 +13°C° 0 mm 4 mps 741 mmHg 91%
04:00 +13°C° 0 mm 5 mps 741 mmHg 91%
05:00 +13°C° 0 mm 5 mps 741 mmHg 90%
06:00 +13°C° 0 mm 5 mps 741 mmHg 89%
07:00 +14°C° 0 mm 6 mps 742 mmHg 86%
08:00 +14°C° 0 mm 6 mps 742 mmHg 84%
09:00 +15°C° 0 mm 6 mps 742 mmHg 81%
10:00 +15°C° 0 mm 6 mps 742 mmHg 79%
11:00 +16°C° 0 mm 6 mps 742 mmHg 78%
12:00 +17°C° 0 mm 6 mps 742 mmHg 76%
13:00 +17°C° 0.2 mm 6 mps 742 mmHg 77%
14:00 +17°C° 0.2 mm 6 mps 742 mmHg 79%
15:00 +17°C° 0.2 mm 6 mps 742 mmHg 80%
16:00 +17°C° 0.1 mm 6 mps 742 mmHg 79%
17:00 +17°C° 0.1 mm 6 mps 742 mmHg 79%
18:00 +19°C° 0.1 mm 5 mps 743 mmHg 78%
19:00 +17°C° 0.1 mm 5 mps 743 mmHg 81%
20:00 +16°C° 0.1 mm 5 mps 743 mmHg 85%
21:00 +15°C° 0.1 mm 5 mps 743 mmHg 89%
22:00 +14°C° 0 mm 5 mps 743 mmHg 88%
23:00 +14°C° 0 mm 5 mps 743 mmHg 88%
Show more